Regional Weather Roundup
Issued by NWS Sterling, VA

Home | Current Version | Previous Version | Graphics & Text | Print | Product List | Glossary On
Versions: 1 2 3 4 5 6 7 8 9 10 11 12 13 14 15 16 17 18 19 20 21 22 23 24 25 26 27 28 29 30 31 32 33 34 35 36 37 38 39 40 41 42 43 44 45 46 47 48 49 50
000
ASUS41 KLWX 210910
RWRLWX

REGIONAL WEATHER ROUNDUP
NATIONAL WEATHER SERVICE BALTIMORE MD/WASHINGTON DC
500 AM EDT THU AUG 21 2014

Note: "FAIR" indicates few or no clouds below 12,000 feet
with no significant weather and/or obstructions to visibility.
 TC=TEMPERATURE CELSIUS

 * =Non NWS site. Station does not report precipitation (e.g. rain,
    snow, etc.), thunder, or fog.

DCZ001-MDZ009-015-VAZ040>042-051-053>054-211000-
WASHINGTON METRO
  /KDAA//-FT BELVOIR

CITY           SKY/WX    TMP DP  RH WIND       PRES   REMARKS
WASHINGTON NAT MOCLDY    72  66  81 CALM      30.00F
DULLES         CLEAR     63  62  97 CALM      30.01R
ANDREWS AFB    PTCLDY    67  67  99 S3        30.00F
QUANTICO       PTCLDY    68  66  93 NW8       30.01R
COLLEGE PARK*  PTCLDY    64  64 100 CALM      29.99F
LEESBURG*      PTCLDY    63  63 100 CALM      30.02S FOG
MANASSAS*      CLOUDY    66  64  94 CALM      30.01R
GAITHERSBURG*  CLEAR     64  63  94 CALM      30.05R

$$

MDZ006>007-011-014-211000-
BALTIMORE METRO

CITY           SKY/WX    TMP DP  RH WIND       PRES   REMARKS
BWI AIRPORT    PTCLDY    66  63  90 CALM      29.99F
MD SCIENCE CTR   N/A     72  67  84 MISG      30.00S
MARTIN STATE   CLOUDY    72  70  94 CALM      30.02R
ANNAPOLIS      PTCLDY    73  69  87 S3        29.99S
FORT MEADE*    CLEAR     61  61 100 CALM      30.02F

$$

MDZ012-015-019>023-211000-
MARYLAND EASTERN SHORE

CITY           SKY/WX    TMP DP  RH WIND       PRES   REMARKS
OCEAN CITY     MOCLDY    69  68  96 CALM      30.01S
SALISBURY      CLOUDY    70  65  84 CALM      30.01S
BAY BRIDGE AP*   N/A     72  70  94 S6        30.00S
CAMBRIDGE*     PTCLDY    72  68  88 E3        30.00S
EASTON*        CLOUDY    70  70 100 CALM      30.04S

$$

MDZ017>025-211000-
SOUTHERN MARYLAND

CITY           SKY/WX    TMP DP  RH WIND       PRES   REMARKS
PATUXENT RIVER CLOUDY    73  71  93 S3        29.99S
ST INIGOES     CLOUDY    75  69  81 CALM      29.99S
LEONARDTOWN*   CLOUDY    72  68  88 CALM      30.01S

$$

MDZ003>005-211000-
NORTH CENTRAL MARYLAND

CITY           SKY/WX    TMP DP  RH WIND       PRES   REMARKS
FREDERICK*     CLOUDY   N/A N/A N/A CALM      30.04R FOG
HAGERSTOWN APT CLOUDY    67  64  90 CALM      30.01R
WESTMINSTER*   CLEAR     66  66 100 CALM      30.02S

$$

MDZ501>502-211000-
WESTERN MARYLAND

CITY           SKY/WX    TMP DP  RH WIND       PRES   REMARKS
OAKLAND*       PTCLDY    64 N/A N/A W6        30.11S HAZE
CUMBERLAND*    CLOUDY    70  68  94 CALM      30.05S

$$

VAZ025>031-211000-
SHENANDOAH VALLEY

CITY           SKY/WX    TMP DP  RH WIND       PRES   REMARKS
WINCHESTER*    FOG       68  68 100 CALM      30.00S VSB 1/2
STAUNTON*      FOG       64  63  95 CALM      30.07R VSB<1/4

$$

WVZ021-048>050-054>055-211000-
EASTERN WEST VIRGINIA PANHANDLE

CITY           SKY/WX    TMP DP  RH WIND       PRES   REMARKS
MARTINSBURG    CLOUDY    67  64  90 CALM      30.01R FOG
PETERSBURG*    NOT AVBL

$$

VAZ036>039-050-211000-
CENTRAL FOOTHILLS

CITY           SKY/WX    TMP DP  RH WIND       PRES   REMARKS
CHARLOTTESVILL FOG       65  64  97 CALM      30.02R VSB 1/2
ORANGE*        FOG       68  64  88 CALM      30.03S VSB 1/4

$$

VAZ055>057-211000-
NORTH AND CENTRAL PIEDMONT

CITY           SKY/WX    TMP DP  RH WIND       PRES   REMARKS
FREDERICKSBRG* CLEAR     66  66 100 CALM      29.99S
STAFFORD*      FOG       64  64 100 CALM      30.04R VSB 1/2

$$

NCZ024-NYZ072-PAZ021-071-VAZ022-071-211000-
OTHER REGIONAL OBSERVATIONS

CITY           SKY/WX    TMP DP  RH WIND       PRES   REMARKS
NEW YORK CITY  LGT RAIN  69  62  78 CALM      30.06R
PHILADELPHIA   PTCLDY    69  64  84 SE6       30.01F
PITTSBURGH     PTCLDY    66  64  93 CALM      30.01S
ROANOKE        PTCLDY    70  66  87 W6        30.07S
RICHMOND       PTCLDY    71  68  90 CALM      30.00R
RALEIGH        MOCLDY    71  69  93 W3        30.01R FOG

$$

ANZ530>537-211000-
MARINE OBSERVATIONS

STATION/POSITION TIME  TEMP    WIND        PRES
                       AIR SEA DIR/SP/G
                 (UTC) (F)     (DEG/KT/KT) (MB)
THOMAS PT LIGHT  0900   74 78  160/ 10/ 11 1016.1F
BALT KEY BRIDGE  0900   73     180/  3/  4 1015.6R
COVE POINT       0900   75     170/ 10/ 11 1015.6F
LEWISETTA        0900   75 80  160/  3/  3 1015.4F
SOLOMONS ISLAND  0900      80                N/A
PINEY POINT      0900          210/  5/  7   N/A

$$




USA.gov is the U.S. government's official web portal to all federal, state and local government web resources and services.